Location: Ottawa
(45.4170°N, 75.7000°W)
Time: 22:45:27
(UTC-04:00)

ISS - Pass Details

Date: 26 May 2021
Orbit: 417 x 422 km, 51.6° (Epoch: 13 June)

Event Time Altitude Azimuth Distance (km) Brightness Sun altitude
Rises 00:01:41 0° 295° (WNW) 2,369 0.6 -22.1°
Reaches altitude 10° 00:03:52 10° 288° (WNW) 1,502 -0.6 -22.2°
Enters shadow 00:05:23 22° 273° (W) 961 -1.8 -22.3°
